| time (UTC) | temp F | wind direction | speed MPH | gust MPH | rain 1hr in | rain 24hr in | rain mn in | humidity % | barometer mb |
| 20260905220130 | 72 | 231 | 1.0 | 7.0 | 0.00 | 0.00 | 0.00 | 46 | 1016.1 |
| 20260905215630 | 71 | 240 | 0.0 | 3.0 | 0.00 | 0.00 | 0.00 | 46 | 1016.1 |
| 20260905215133 | 71 | 241 | 1.0 | 4.0 | 0.00 | 0.00 | 0.00 | 45 | 1016.1 |
| 20260905214945 | 71 | 250 | 1.0 | 5.0 | 0.00 | 0.00 | 0.00 | 45 | 1016.3 |
| 20260905214131 | 72 | 248 | 0.0 | 5.0 | 0.00 | 0.00 | 0.00 | 43 | 1016.3 |
| 20260905213630 | 71 | 241 | 0.0 | 3.0 | 0.00 | 0.00 | 0.00 | 44 | 1016.3 |
| 20260905213133 | 71 | 243 | 0.0 | 3.0 | 0.00 | 0.00 | 0.00 | 45 | 1016.3 |
| 20260905212630 | 71 | 245 | 0.0 | 3.0 | 0.00 | 0.00 | 0.00 | 46 | 1016.3 |
| 20260905212321 | 71 | 262 | 1.0 | 6.0 | 0.00 | 0.00 | 0.00 | 50 | 1016.5 |
| 20260905212237 | 71 | 257 | 1.0 | 5.0 | 0.00 | 0.00 | 0.00 | 49 | 1016.4 |
| 20260905211129 | 70 | 290 | 1.0 | 6.0 | 0.00 | 0.00 | 0.00 | 50 | 1016.6 |
| 20260905210629 | 70 | 255 | 1.0 | 3.0 | 0.00 | 0.00 | 0.00 | 51 | 1016.6 |
| 20260905210130 | 69 | 253 | 1.0 | 7.0 | 0.00 | 0.00 | 0.00 | 53 | 1016.6 |
| 20260905205629 | 69 | 248 | 1.0 | 7.0 | 0.00 | 0.00 | 0.00 | 53 | 1016.6 |
| 20260905205130 | 69 | 270 | 0.0 | 7.0 | 0.00 | 0.00 | 0.00 | 54 | 1016.7 |
| 20260905204629 | 69 | 225 | 0.0 | 3.0 | 0.00 | 0.00 | 0.00 | 53 | 1016.7 |
| 20260905204439 | 69 | 224 | 0.0 | 3.0 | 0.00 | 0.00 | 0.00 | 53 | 1016.8 |
| 20260905203953 | 69 | 214 | 0.0 | 3.0 | 0.00 | 0.00 | 0.00 | 53 | 1016.8 |
| 20260905203439 | 69 | 216 | 0.0 | 3.0 | 0.00 | 0.00 | 0.00 | 51 | 1016.8 |
| 20260905202951 | 69 | 213 | 0.0 | 3.0 | 0.00 | 0.00 | 0.00 | 52 | 1016.7 |
| 20260905202127 | 69 | 216 | 0.0 | 4.0 | 0.00 | 0.00 | 0.00 | 53 | 1016.8 |
| 20260905201628 | 69 | 214 | 0.0 | 4.0 | 0.00 | 0.00 | 0.00 | 52 | 1016.9 |
| 20260905201124 | 70 | 218 | 0.0 | 4.0 | 0.00 | 0.00 | 0.00 | 52 | 1017.0 |
| 20260905200623 | 70 | 274 | 0.0 | 3.0 | 0.00 | 0.00 | 0.00 | 53 | 1017.0 |
| 20260905200120 | 70 | 274 | 1.0 | 6.0 | 0.00 | 0.00 | 0.00 | 52 | 1017.0 |
| 20260905195617 | 70 | 278 | 0.0 | 6.0 | 0.00 | 0.00 | 0.00 | 54 | 1017.0 |
| 20260905195117 | 69 | 260 | 0.0 | 3.0 | 0.00 | 0.00 | 0.00 | 53 | 1017.0 |
| 20260905194617 | 69 | 259 | 0.0 | 3.0 | 0.00 | 0.00 | 0.00 | 52 | 1017.0 |
| 20260905194115 | 69 | 254 | 0.0 | 4.0 | 0.00 | 0.00 | 0.00 | 55 | 1017.1 |
| 20260905193613 | 69 | 256 | 0.0 | 4.0 | 0.00 | 0.00 | 0.00 | 53 | 1017.3 |
| 20260905193116 | 69 | 253 | 0.0 | 2.0 | 0.00 | 0.00 | 0.00 | 55 | 1017.1 |
| 20260905192613 | 68 | 252 | 0.0 | 2.0 | 0.00 | 0.00 | 0.00 | 54 | 1017.4 |
| 20260905192110 | 68 | 277 | 0.0 | 3.0 | 0.00 | 0.00 | 0.00 | 55 | 1017.5 |
| 20260905191749 | 67 | 284 | 0.0 | 5.0 | 0.00 | 0.00 | 0.00 | 57 | 1017.5 |
| 20260905191715 | 68 | 277 | 1.0 | 5.0 | 0.00 | 0.00 | 0.00 | 56 | 1017.5 |
| 20260905190923 | 67 | 153 | 0.0 | 4.0 | 0.00 | 0.00 | 0.00 | 56 | 1017.5 |
| 20260905190115 | 67 | 153 | 1.0 | 4.0 | 0.00 | 0.00 | 0.00 | 60 | 1017.6 |
| 20260905185603 | 66 | 216 | 0.0 | 4.0 | 0.00 | 0.00 | 0.00 | 60 | 1017.8 |
| 20260905185103 | 65 | 282 | 0.0 | 4.0 | 0.00 | 0.00 | 0.00 | 56 | 1017.8 |
| 20260905184603 | 65 | 266 | 1.0 | 4.0 | 0.00 | 0.00 | 0.00 | 59 | 1017.9 |
| 20260905184102 | 64 | 282 | 1.0 | 4.0 | 0.00 | 0.00 | 0.00 | 59 | 1017.9 |
| 20260905183601 | 64 | 282 | 1.0 | 6.0 | 0.00 | 0.00 | 0.00 | 60 | 1018.0 |
| 20260905183101 | 64 | 282 | 1.0 | 6.0 | 0.00 | 0.00 | 0.00 | 59 | 1018.1 |
| 20260905182602 | 64 | 293 | 0.0 | 3.0 | 0.00 | 0.00 | 0.00 | 60 | 1018.1 |
| 20260905182248 | 64 | 280 | 0.0 | 4.0 | 0.00 | 0.00 | 0.00 | 60 | 1018.3 |
| 20260905182204 | 64 | 288 | 0.0 | 3.0 | 0.00 | 0.00 | 0.00 | 59 | 1018.1 |
| 20260905181058 | 64 | 281 | 0.0 | 3.0 | 0.00 | 0.00 | 0.00 | 61 | 1018.2 |
| 20260905180914 | 64 | 283 | 0.0 | 2.0 | 0.00 | 0.00 | 0.00 | 61 | 1018.2 |
| 20260905180110 | 63 | 283 | 0.0 | 3.0 | 0.00 | 0.00 | 0.00 | 61 | 1018.2 |
| 20260905175915 | 63 | 283 | 0.0 | 3.0 | 0.00 | 0.00 | 0.00 | 62 | 1018.3 |
| 20260905175058 | 63 | 280 | 0.0 | 3.0 | 0.00 | 0.00 | 0.00 | 62 | 1018.4 |
| 20260905174558 | 62 | 278 | 0.0 | 3.0 | 0.00 | 0.00 | 0.00 | 63 | 1018.4 |
| 20260905174058 | 63 | 278 | 0.0 | 2.0 | 0.00 | 0.00 | 0.00 | 62 | 1018.3 |
| 20260905173555 | 62 | 273 | 0.0 | 3.0 | 0.00 | 0.00 | 0.00 | 64 | 1018.4 |
| 20260905173056 | 62 | 272 | 0.0 | 3.0 | 0.00 | 0.00 | 0.00 | 67 | 1018.3 |
| 20260905172557 | 61 | 272 | 0.0 | 4.0 | 0.00 | 0.00 | 0.00 | 66 | 1018.4 |
| 20260905172106 | 60 | 274 | 0.0 | 4.0 | 0.00 | 0.00 | 0.00 | 67 | 1018.5 |
| 20260905171554 | 60 | 274 | 1.0 | 4.0 | 0.00 | 0.00 | 0.00 | 66 | 1018.5 |
| 20260905171051 | 60 | 274 | 0.0 | 4.0 | 0.00 | 0.00 | 0.00 | 67 | 1018.6 |
| 20260905170905 | 60 | 274 | 0.0 | 1.0 | 0.00 | 0.00 | 0.00 | 67 | 1018.7 |
| 20260905170106 | 60 | 274 | 0.0 | 2.0 | 0.00 | 0.00 | 0.00 | 69 | 1018.7 |
| 20260905165552 | 59 | 273 | 0.0 | 2.0 | 0.00 | 0.00 | 0.00 | 71 | 1018.7 |
| 20260905165051 | 59 | 272 | 0.0 | 1.0 | 0.00 | 0.00 | 0.00 | 70 | 1018.5 |
| 20260905164914 | 59 | 273 | 0.0 | 1.0 | 0.00 | 0.00 | 0.00 | 69 | 1018.5 |
| 20260905164409 | 58 | 272 | 0.0 | 1.0 | 0.00 | 0.00 | 0.00 | 71 | 1018.6 |
| 20260905163548 | 58 | 272 | 0.0 | 2.0 | 0.00 | 0.00 | 0.00 | 70 | 1018.6 |
| 20260905163045 | 58 | 272 | 0.0 | 2.0 | 0.00 | 0.00 | 0.00 | 70 | 1018.6 |
| 20260905162537 | 58 | 268 | 0.0 | 2.0 | 0.00 | 0.00 | 0.00 | 70 | 1018.6 |
| 20260905162218 | 58 | 268 | 0.0 | 1.0 | 0.00 | 0.00 | 0.00 | 71 | 1018.6 |
| 20260905162134 | 59 | 268 | 0.0 | 2.0 | 0.00 | 0.00 | 0.00 | 69 | 1018.6 |
| 20260905161050 | 58 | 270 | 0.0 | 1.0 | 0.00 | 0.00 | 0.00 | 71 | 1018.7 |
| 20260905160535 | 57 | 270 | 0.0 | 1.0 | 0.00 | 0.00 | 0.00 | 72 | 1018.7 |
| 20260905160350 | 56 | 270 | 0.0 | 1.0 | 0.00 | 0.00 | 0.00 | 75 | 1018.7 |
| 20260905155536 | 55 | 267 | 0.0 | 1.0 | 0.00 | 0.00 | 0.00 | 75 | 1018.6 |
| 20260905155034 | 55 | 267 | 0.0 | 1.0 | 0.00 | 0.00 | 0.00 | 75 | 1018.7 |
| 20260905154535 | 55 | 267 | 0.0 | 0.0 | 0.00 | 0.00 | 0.00 | 77 | 1018.7 |
| 20260905154035 | 55 | 267 | 0.0 | 0.0 | 0.00 | 0.00 | 0.00 | 78 | 1018.8 |
| 20260905153536 | 55 | 267 | 0.0 | 1.0 | 0.00 | 0.00 | 0.00 | 79 | 1018.8 |
| 20260905153032 | 55 | 267 | 0.0 | 1.0 | 0.00 | 0.00 | 0.00 | 78 | 1018.7 |
| 20260905152532 | 54 | 267 | 0.0 | 0.0 | 0.00 | 0.00 | 0.00 | 79 | 1018.8 |
| 20260905152032 | 54 | 267 | 0.0 | 1.0 | 0.00 | 0.00 | 0.00 | 79 | 1018.9 |
| 20260905151532 | 53 | 267 | 0.0 | 1.0 | 0.00 | 0.00 | 0.00 | 79 | 1018.9 |
| 20260905151356 | 51 | 264 | 0.0 | 3.0 | 0.00 | 0.00 | 0.00 | 83 | 1018.8 |
| 20260905151351 | 52 | 263 | 0.0 | 0.0 | 0.00 | 0.00 | 0.00 | 81 | 1018.8 |
| 20260905151027 | 52 | 263 | 0.0 | 2.0 | 0.00 | 0.00 | 0.00 | 83 | 1018.8 |
| 20260905145530 | 51 | 263 | 0.0 | 3.0 | 0.00 | 0.00 | 0.00 | 84 | 1018.9 |
| 20260905145032 | 51 | 263 | 0.0 | 2.0 | 0.00 | 0.00 | 0.00 | 84 | 1018.8 |
| 20260905144532 | 50 | 263 | 0.0 | 2.0 | 0.00 | 0.00 | 0.00 | 84 | 1018.8 |
| 20260905144030 | 50 | 263 | 0.0 | 2.0 | 0.00 | 0.00 | 0.00 | 84 | 1018.8 |
| 20260905143532 | 50 | 263 | 0.0 | 1.0 | 0.00 | 0.00 | 0.00 | 84 | 1018.7 |
| 20260905143032 | 50 | 263 | 0.0 | 1.0 | 0.00 | 0.00 | 0.00 | 85 | 1018.7 |
| 20260905142551 | 50 | 263 | 0.0 | 2.0 | 0.00 | 0.00 | 0.00 | 85 | 1018.7 |
| 20260905142402 | 50 | 263 | 0.0 | 2.0 | 0.00 | 0.00 | 0.00 | 86 | 1018.7 |
| 20260905141531 | 49 | 263 | 0.0 | 0.0 | 0.00 | 0.00 | 0.00 | 85 | 1018.6 |
| 20260905141031 | 49 | 263 | 0.0 | 2.0 | 0.00 | 0.00 | 0.00 | 85 | 1018.6 |
| 20260905140529 | 49 | 263 | 0.0 | 2.0 | 0.00 | 0.00 | 0.00 | 85 | 1018.6 |
| 20260905140341 | 49 | 263 | 0.0 | 2.0 | 0.00 | 0.00 | 0.00 | 85 | 1018.5 |
| 20260905135525 | 49 | 263 | 0.0 | 2.0 | 0.00 | 0.00 | 0.00 | 85 | 1018.4 |
| 20260905135130 | 49 | 263 | 0.0 | 2.0 | 0.00 | 0.00 | 0.00 | 85 | 1018.4 |
| 20260905134025 | 49 | 263 | 0.0 | 0.0 | 0.00 | 0.00 | 0.00 | 86 | 1018.3 |
| 20260905133538 | 49 | 263 | 0.0 | 0.0 | 0.00 | 0.00 | 0.00 | 86 | 1018.3 |
| 20260905133024 | 48 | 263 | 0.0 | 0.0 | 0.00 | 0.00 | 0.00 | 87 | 1018.2 |
| 20260905132520 | 48 | 263 | 0.0 | 1.0 | 0.00 | 0.00 | 0.00 | 86 | 1018.1 |
| 20260905132334 | 48 | 263 | 0.0 | 1.0 | 0.00 | 0.00 | 0.00 | 86 | 1018.1 |
| 20260905131848 | 48 | 263 | 0.0 | 0.0 | 0.00 | 0.00 | 0.00 | 87 | 1018.1 |
| 20260905131019 | 48 | 263 | 0.0 | 0.0 | 0.00 | 0.00 | 0.00 | 87 | 1018.0 |
| 20260905130834 | 48 | 263 | 0.0 | 0.0 | 0.00 | 0.00 | 0.00 | 87 | 1017.9 |
| 20260905130021 | 48 | 263 | 0.0 | 0.0 | 0.00 | 0.00 | 0.00 | 86 | 1017.9 |
| 20260905125830 | 48 | 263 | 0.0 | 0.0 | 0.00 | 0.00 | 0.00 | 86 | 1017.8 |
| 20260905125018 | 48 | 263 | 0.0 | 0.0 | 0.00 | 0.00 | 0.00 | 86 | 1017.9 |
| 20260905124517 | 48 | 263 | 0.0 | 0.0 | 0.00 | 0.00 | 0.00 | 86 | 1017.8 |
| 20260905124017 | 48 | 263 | 0.0 | 0.0 | 0.00 | 0.00 | 0.00 | 86 | 1017.8 |
| 20260905123514 | 48 | 263 | 0.0 | 0.0 | 0.00 | 0.00 | 0.00 | 86 | 1017.6 |
| 20260905123328 | 48 | 263 | 0.0 | 0.0 | 0.00 | 0.00 | 0.00 | 86 | 1017.6 |
| 20260905122513 | 48 | 263 | 0.0 | 0.0 | 0.00 | 0.00 | 0.00 | 86 | 1017.8 |
| 20260905122326 | 48 | 263 | 0.0 | 0.0 | 0.00 | 0.00 | 0.00 | 86 | 1017.8 |
| 20260905121514 | 48 | 263 | 0.0 | 0.0 | 0.00 | 0.00 | 0.00 | 85 | 1017.6 |
| 20260905121012 | 48 | 263 | 0.0 | 0.0 | 0.00 | 0.00 | 0.00 | 85 | 1017.6 |
| 20260905120511 | 48 | 263 | 0.0 | 0.0 | 0.00 | 0.00 | 0.00 | 85 | 1017.5 |
| 20260905120010 | 48 | 263 | 0.0 | 0.0 | 0.00 | 0.00 | 0.00 | 85 | 1017.5 |
| 20260905115510 | 48 | 263 | 0.0 | 0.0 | 0.00 | 0.00 | 0.00 | 86 | 1017.6 |
| 20260905115008 | 48 | 263 | 0.0 | 0.0 | 0.00 | 0.00 | 0.00 | 86 | 1017.8 |
| 20260905114508 | 48 | 263 | 0.0 | 0.0 | 0.00 | 0.00 | 0.00 | 86 | 1017.8 |
| 20260905114011 | 48 | 263 | 0.0 | 0.0 | 0.00 | 0.00 | 0.00 | 86 | 1017.6 |
| 20260905113512 | 48 | 263 | 0.0 | 0.0 | 0.00 | 0.00 | 0.00 | 86 | 1017.8 |
| 20260905113011 | 48 | 263 | 0.0 | 0.0 | 0.00 | 0.00 | 0.00 | 86 | 1017.5 |
| 20260905112521 | 49 | 263 | 0.0 | 0.0 | 0.00 | 0.00 | 0.00 | 86 | 1017.5 |
| 20260905112012 | 49 | 263 | 0.0 | 0.0 | 0.00 | 0.00 | 0.00 | 86 | 1017.6 |
| 20260905111513 | 49 | 263 | 0.0 | 0.0 | 0.00 | 0.00 | 0.00 | 86 | 1017.4 |
| 20260905111014 | 49 | 263 | 0.0 | 0.0 | 0.00 | 0.00 | 0.00 | 86 | 1017.5 |
| 20260905110508 | 49 | 263 | 0.0 | 0.0 | 0.00 | 0.00 | 0.00 | 85 | 1017.5 |
| 20260905110007 | 49 | 263 | 0.0 | 0.0 | 0.00 | 0.00 | 0.00 | 85 | 1017.5 |
| 20260905105507 | 49 | 263 | 0.0 | 0.0 | 0.00 | 0.00 | 0.00 | 85 | 1017.5 |
| 20260905105008 | 49 | 263 | 0.0 | 0.0 | 0.00 | 0.00 | 0.00 | 85 | 1017.6 |
| 20260905104508 | 49 | 263 | 0.0 | 0.0 | 0.00 | 0.00 | 0.00 | 86 | 1017.6 |
| 20260905104007 | 49 | 263 | 0.0 | 0.0 | 0.00 | 0.00 | 0.00 | 86 | 1017.8 |
| 20260905103826 | 49 | 263 | 0.0 | 0.0 | 0.00 | 0.00 | 0.00 | 85 | 1017.8 |
| 20260905103008 | 49 | 263 | 0.0 | 0.0 | 0.00 | 0.00 | 0.00 | 85 | 1017.8 |
| 20260905102506 | 50 | 263 | 0.0 | 0.0 | 0.00 | 0.00 | 0.00 | 85 | 1017.6 |
| 20260905102005 | 50 | 263 | 0.0 | 0.0 | 0.00 | 0.00 | 0.00 | 85 | 1017.6 |
| 20260905101506 | 50 | 263 | 0.0 | 0.0 | 0.00 | 0.00 | 0.00 | 85 | 1017.5 |
| 20260905101019 | 50 | 263 | 0.0 | 0.0 | 0.00 | 0.00 | 0.00 | 85 | 1017.5 |
| 20260905100518 | 50 | 263 | 0.0 | 0.0 | 0.00 | 0.00 | 0.00 | 85 | 1017.5 |
| 20260905100008 | 50 | 263 | 0.0 | 0.0 | 0.00 | 0.00 | 0.00 | 85 | 1017.5 |
| 20260905095520 | 50 | 263 | 0.0 | 0.0 | 0.00 | 0.00 | 0.00 | 85 | 1017.6 |
| 20260905095018 | 50 | 263 | 0.0 | 0.0 | 0.00 | 0.00 | 0.00 | 85 | 1017.6 |
| 20260905094506 | 50 | 263 | 0.0 | 0.0 | 0.00 | 0.00 | 0.00 | 85 | 1017.6 |
| 20260905094009 | 50 | 263 | 0.0 | 0.0 | 0.00 | 0.00 | 0.00 | 85 | 1017.5 |
| 20260905093522 | 50 | 263 | 0.0 | 0.0 | 0.00 | 0.00 | 0.00 | 85 | 1017.6 |
| 20260905093007 | 50 | 263 | 0.0 | 0.0 | 0.00 | 0.00 | 0.00 | 85 | 1017.6 |
| 20260905092701 | 50 | 263 | 0.0 | 0.0 | 0.00 | 0.00 | 0.00 | 85 | 1017.8 |
| 20260905092615 | 50 | 263 | 0.0 | 0.0 | 0.00 | 0.00 | 0.00 | 84 | 1017.6 |
| 20260905091507 | 50 | 263 | 0.0 | 0.0 | 0.00 | 0.01 | 0.00 | 84 | 1017.8 |
| 20260905090956 | 51 | 263 | 0.0 | 0.0 | 0.00 | 0.01 | 0.00 | 85 | 1017.8 |
| 20260905090506 | 51 | 263 | 0.0 | 0.0 | 0.00 | 0.01 | 0.00 | 84 | 1017.5 |
| 20260905085958 | 51 | 263 | 0.0 | 0.0 | 0.00 | 0.01 | 0.00 | 84 | 1017.3 |
| 20260905085504 | 51 | 263 | 0.0 | 0.0 | 0.00 | 0.01 | 0.00 | 84 | 1017.3 |
| 20260905084951 | 51 | 263 | 0.0 | 0.0 | 0.00 | 0.01 | 0.00 | 84 | 1017.3 |
| 20260905084451 | 51 | 263 | 0.0 | 0.0 | 0.00 | 0.01 | 0.00 | 85 | 1017.3 |
| 20260905084305 | 51 | 263 | 0.0 | 0.0 | 0.00 | 0.01 | 0.00 | 85 | 1017.2 |
| 20260905083450 | 51 | 263 | 0.0 | 0.0 | 0.00 | 0.01 | 0.00 | 86 | 1017.2 |
| 20260905082946 | 51 | 263 | 0.0 | 0.0 | 0.00 | 0.02 | 0.00 | 86 | 1017.1 |
| 20260905082804 | 50 | 263 | 0.0 | 0.0 | 0.00 | 0.02 | 0.00 | 86 | 1017.2 |
| 20260905081949 | 50 | 263 | 0.0 | 0.0 | 0.00 | 0.02 | 0.00 | 86 | 1017.1 |
| 20260905081445 | 50 | 263 | 0.0 | 0.0 | 0.00 | 0.03 | 0.00 | 86 | 1017.0 |
| 20260905080941 | 50 | 263 | 0.0 | 0.0 | 0.00 | 0.03 | 0.00 | 85 | 1017.0 |
| 20260905080755 | 50 | 263 | 0.0 | 0.0 | 0.00 | 0.04 | 0.00 | 85 | 1016.9 |
| 20260905075941 | 51 | 263 | 0.0 | 0.0 | 0.00 | 0.04 | 0.00 | 85 | 1016.9 |
| 20260905075441 | 51 | 263 | 0.0 | 0.0 | 0.00 | 0.05 | 0.00 | 85 | 1017.0 |
| 20260905074940 | 51 | 263 | 0.0 | 0.0 | 0.00 | 0.06 | 0.00 | 85 | 1016.9 |
| 20260905074749 | 51 | 263 | 0.0 | 0.0 | 0.00 | 0.07 | 0.00 | 85 | 1016.8 |
| 20260905073941 | 51 | 263 | 0.0 | 0.0 | 0.00 | 0.07 | 0.00 | 85 | 1016.9 |
| 20260905073926 | 51 | 263 | 0.0 | 0.0 | 0.00 | 0.08 | 0.00 | 84 | 1016.9 |
| 20260905073921 | 51 | 263 | 0.0 | 0.0 | 0.00 | 0.07 | 0.00 | 85 | 1017.0 |
| 20260905072811 | 52 | 263 | 0.0 | 0.0 | 0.00 | 0.08 | 0.00 | 84 | 1016.8 |
| 20260905072325 | 52 | 263 | 0.0 | 0.0 | 0.00 | 0.08 | 0.00 | 83 | 1016.7 |
| 20260905071439 | 52 | 263 | 0.0 | 0.0 | 0.00 | 0.09 | 0.00 | 83 | 1016.7 |
| 20260905070933 | 52 | 263 | 0.0 | 0.0 | 0.00 | 0.09 | 0.00 | 83 | 1016.7 |
| 20260905070440 | 52 | 263 | 0.0 | 0.0 | 0.00 | 0.10 | 0.00 | 83 | 1016.7 |
| 20260905065938 | 52 | 263 | 0.0 | 0.0 | 0.00 | 0.10 | 0.10 | 82 | 1016.7 |
| 20260905065755 | 53 | 263 | 0.0 | 0.0 | 0.00 | 0.10 | 0.10 | 82 | 1016.7 |
| 20260905064936 | 53 | 263 | 0.0 | 0.0 | 0.00 | 0.10 | 0.10 | 82 | 1016.8 |
| 20260905064604 | 53 | 263 | 0.0 | 0.0 | 0.00 | 0.10 | 0.10 | 82 | 1016.8 |
| 20260905064529 | 53 | 263 | 0.0 | 0.0 | 0.00 | 0.10 | 0.10 | 82 | 1016.8 |
| 20260905063433 | 53 | 263 | 0.0 | 0.0 | 0.00 | 0.10 | 0.10 | 82 | 1016.8 |
| 20260905062932 | 53 | 263 | 0.0 | 0.0 | 0.00 | 0.10 | 0.10 | 82 | 1016.8 |
| 20260905062748 | 53 | 263 | 0.0 | 0.0 | 0.00 | 0.10 | 0.10 | 82 | 1016.9 |
| 20260905061932 | 54 | 263 | 0.0 | 0.0 | 0.00 | 0.10 | 0.10 | 82 | 1016.9 |
| 20260905061747 | 54 | 263 | 0.0 | 0.0 | 0.00 | 0.10 | 0.10 | 82 | 1016.9 |
| 20260905061247 | 54 | 263 | 0.0 | 0.0 | 0.00 | 0.10 | 0.10 | 82 | 1016.9 |
| 20260905060751 | 54 | 263 | 0.0 | 0.0 | 0.00 | 0.10 | 0.10 | 81 | 1016.9 |
| 20260905055932 | 54 | 263 | 0.0 | 0.0 | 0.00 | 0.10 | 0.10 | 81 | 1017.0 |
| 20260905055431 | 54 | 263 | 0.0 | 0.0 | 0.00 | 0.10 | 0.10 | 81 | 1016.8 |
| 20260905054932 | 55 | 263 | 0.0 | 0.0 | 0.00 | 0.10 | 0.10 | 81 | 1016.8 |
| 20260905054430 | 55 | 263 | 0.0 | 0.0 | 0.00 | 0.10 | 0.10 | 80 | 1016.8 |
| 20260905053931 | 55 | 263 | 0.0 | 0.0 | 0.00 | 0.10 | 0.10 | 80 | 1016.7 |
| 20260905053430 | 55 | 263 | 0.0 | 0.0 | 0.00 | 0.10 | 0.10 | 80 | 1016.7 |
| 20260905052931 | 55 | 263 | 0.0 | 0.0 | 0.00 | 0.10 | 0.10 | 79 | 1016.7 |
| 20260905052744 | 55 | 263 | 0.0 | 0.0 | 0.00 | 0.10 | 0.10 | 79 | 1016.6 |
| 20260905051930 | 55 | 263 | 0.0 | 0.0 | 0.00 | 0.10 | 0.10 | 79 | 1016.6 |
| 20260905051430 | 55 | 263 | 0.0 | 0.0 | 0.00 | 0.10 | 0.10 | 78 | 1016.6 |
| 20260905050931 | 55 | 263 | 0.0 | 0.0 | 0.00 | 0.10 | 0.10 | 77 | 1016.6 |
| 20260905050748 | 55 | 263 | 0.0 | 0.0 | 0.00 | 0.10 | 0.10 | 77 | 1016.7 |
| 20260905045931 | 55 | 263 | 0.0 | 0.0 | 0.00 | 0.10 | 0.10 | 77 | 1016.6 |
| 20260905045431 | 55 | 263 | 0.0 | 0.0 | 0.00 | 0.10 | 0.10 | 76 | 1016.6 |
| 20260905044931 | 55 | 263 | 0.0 | 0.0 | 0.00 | 0.10 | 0.10 | 76 | 1016.6 |
| 20260905044750 | 56 | 263 | 0.0 | 0.0 | 0.00 | 0.10 | 0.10 | 77 | 1016.6 |
| 20260905043930 | 56 | 263 | 0.0 | 0.0 | 0.00 | 0.10 | 0.10 | 78 | 1016.6 |
| 20260905043752 | 56 | 263 | 0.0 | 0.0 | 0.00 | 0.10 | 0.10 | 77 | 1016.6 |
| 20260905042930 | 56 | 263 | 0.0 | 0.0 | 0.00 | 0.10 | 0.10 | 76 | 1016.6 |
| 20260905042430 | 56 | 263 | 0.0 | 0.0 | 0.00 | 0.10 | 0.10 | 76 | 1016.6 |
| 20260905041932 | 56 | 263 | 0.0 | 0.0 | 0.00 | 0.10 | 0.10 | 75 | 1016.6 |
| 20260905041431 | 56 | 263 | 0.0 | 1.0 | 0.00 | 0.10 | 0.10 | 75 | 1016.6 |
| 20260905040934 | 57 | 263 | 0.0 | 1.0 | 0.00 | 0.10 | 0.10 | 74 | 1016.5 |
| 20260905040432 | 57 | 263 | 0.0 | 2.0 | 0.00 | 0.10 | 0.10 | 74 | 1016.5 |
| 20260905035931 | 57 | 263 | 0.0 | 2.0 | 0.00 | 0.10 | 0.10 | 75 | 1016.6 |
| 20260905035431 | 57 | 263 | 0.0 | 1.0 | 0.00 | 0.10 | 0.10 | 75 | 1016.4 |
| 20260905034934 | 57 | 263 | 0.0 | 0.0 | 0.00 | 0.10 | 0.10 | 74 | 1016.4 |
| 20260905034537 | 57 | 263 | 0.0 | 0.0 | 0.00 | 0.10 | 0.10 | 75 | 1016.4 |
| 20260905033432 | 57 | 263 | 0.0 | 0.0 | 0.00 | 0.10 | 0.10 | 75 | 1016.4 |
| 20260905032931 | 57 | 263 | 0.0 | 1.0 | 0.00 | 0.10 | 0.10 | 74 | 1016.5 |
| 20260905032751 | 57 | 263 | 0.0 | 2.0 | 0.00 | 0.10 | 0.10 | 74 | 1016.5 |
| 20260905032247 | 57 | 263 | 0.0 | 2.0 | 0.00 | 0.10 | 0.10 | 74 | 1016.5 |
| 20260905031432 | 57 | 263 | 0.0 | 2.0 | 0.00 | 0.10 | 0.10 | 74 | 1016.5 |
| 20260905030933 | 57 | 263 | 0.0 | 2.0 | 0.00 | 0.10 | 0.10 | 74 | 1016.4 |
| 20260905030432 | 58 | 263 | 0.0 | 2.0 | 0.00 | 0.10 | 0.10 | 72 | 1016.4 |
| 20260905025931 | 58 | 263 | 0.0 | 0.0 | 0.00 | 0.10 | 0.10 | 72 | 1016.3 |
| 20260905025431 | 58 | 263 | 0.0 | 0.0 | 0.00 | 0.10 | 0.10 | 70 | 1016.3 |
| 20260905024931 | 58 | 263 | 0.0 | 0.0 | 0.00 | 0.10 | 0.10 | 71 | 1016.2 |
| 20260905024431 | 58 | 263 | 0.0 | 0.0 | 0.00 | 0.10 | 0.10 | 71 | 1016.3 |
| 20260905023943 | 58 | 263 | 0.0 | 0.0 | 0.00 | 0.10 | 0.10 | 69 | 1016.3 |
| 20260905023431 | 59 | 263 | 0.0 | 0.0 | 0.00 | 0.10 | 0.10 | 69 | 1016.2 |
| 20260905022933 | 59 | 263 | 0.0 | 0.0 | 0.00 | 0.10 | 0.10 | 68 | 1016.1 |
| 20260905022745 | 59 | 263 | 0.0 | 0.0 | 0.00 | 0.10 | 0.10 | 67 | 1015.9 |
| 20260905021932 | 59 | 263 | 0.0 | 0.0 | 0.00 | 0.10 | 0.10 | 67 | 1015.9 |
| 20260905021749 | 60 | 263 | 0.0 | 0.0 | 0.00 | 0.10 | 0.10 | 67 | 1015.8 |
| 20260905020936 | 60 | 263 | 0.0 | 0.0 | 0.00 | 0.10 | 0.10 | 66 | 1015.9 |
| 20260905020759 | 60 | 263 | 0.0 | 0.0 | 0.00 | 0.10 | 0.10 | 65 | 1015.8 |
| 20260905015933 | 60 | 263 | 0.0 | 0.0 | 0.00 | 0.10 | 0.10 | 65 | 1015.8 |
| 20260905015434 | 60 | 263 | 0.0 | 1.0 | 0.00 | 0.10 | 0.10 | 64 | 1015.8 |
| 20260905014933 | 61 | 263 | 0.0 | 1.0 | 0.00 | 0.10 | 0.10 | 63 | 1015.8 |
| 20260905014435 | 62 | 263 | 0.0 | 1.0 | 0.00 | 0.10 | 0.10 | 61 | 1015.7 |
| 20260905013931 | 62 | 263 | 0.0 | 1.0 | 0.00 | 0.10 | 0.10 | 60 | 1015.6 |
| 20260905013430 | 62 | 263 | 0.0 | 1.0 | 0.00 | 0.10 | 0.10 | 59 | 1015.7 |
| 20260905012932 | 63 | 263 | 0.0 | 1.0 | 0.00 | 0.10 | 0.10 | 60 | 1015.8 |
| 20260905012433 | 63 | 263 | 0.0 | 1.0 | 0.00 | 0.10 | 0.10 | 59 | 1015.9 |
| 20260905012252 | 64 | 263 | 0.0 | 1.0 | 0.00 | 0.10 | 0.10 | 59 | 1015.8 |
| 20260905011432 | 64 | 263 | 0.0 | 2.0 | 0.00 | 0.10 | 0.10 | 58 | 1015.7 |
| 20260905010934 | 64 | 263 | 0.0 | 2.0 | 0.00 | 0.10 | 0.10 | 59 | 1015.7 |
| 20260905010611 | 64 | 263 | 0.0 | 2.0 | 0.00 | 0.10 | 0.10 | 58 | 1015.5 |
| 20260905010531 | 64 | 263 | 0.0 | 2.0 | 0.00 | 0.10 | 0.10 | 58 | 1015.6 |
| 20260905005435 | 64 | 263 | 0.0 | 1.0 | 0.00 | 0.10 | 0.10 | 59 | 1015.4 |
| 20260905004934 | 64 | 264 | 0.0 | 3.0 | 0.00 | 0.10 | 0.10 | 59 | 1015.4 |
| 20260905004428 | 64 | 264 | 0.0 | 3.0 | 0.00 | 0.10 | 0.10 | 59 | 1015.3 |
| 20260905003928 | 64 | 264 | 0.0 | 3.0 | 0.00 | 0.10 | 0.10 | 60 | 1015.3 |
| 20260905003437 | 64 | 264 | 0.0 | 4.0 | 0.00 | 0.10 | 0.10 | 59 | 1015.3 |
| 20260905002932 | 64 | 178 | 0.0 | 4.0 | 0.00 | 0.10 | 0.10 | 61 | 1015.3 |
| 20260905002426 | 63 | 176 | 0.0 | 3.0 | 0.00 | 0.10 | 0.10 | 61 | 1015.2 |
| 20260905001926 | 63 | 174 | 0.0 | 1.0 | 0.00 | 0.10 | 0.10 | 62 | 1015.2 |
| 20260905001426 | 63 | 174 | 0.0 | 2.0 | 0.00 | 0.10 | 0.10 | 62 | 1015.4 |
| 20260905000927 | 63 | 174 | 0.0 | 2.0 | 0.00 | 0.10 | 0.10 | 61 | 1015.4 |
| 20260905000426 | 63 | 174 | 0.0 | 2.0 | 0.00 | 0.10 | 0.10 | 60 | 1015.4 |
| 20260904235926 | 64 | 175 | 0.0 | 3.0 | 0.00 | 0.10 | 0.10 | 58 | 1015.4 |
| 20260904235424 | 65 | 175 | 0.0 | 5.0 | 0.00 | 0.10 | 0.10 | 57 | 1015.4 |
| 20260904234926 | 65 | 171 | 1.0 | 6.0 | 0.00 | 0.10 | 0.10 | 55 | 1015.4 |
| 20260904234425 | 65 | 169 | 1.0 | 5.0 | 0.00 | 0.10 | 0.10 | 55 | 1015.5 |
| 20260904233937 | 65 | 141 | 1.0 | 4.0 | 0.00 | 0.10 | 0.10 | 59 | 1015.5 |
| 20260904233423 | 65 | 141 | 1.0 | 4.0 | 0.00 | 0.10 | 0.10 | 59 | 1015.4 |
| 20260904232922 | 65 | 77 | 1.0 | 4.0 | 0.00 | 0.10 | 0.10 | 57 | 1015.4 |
| 20260904232423 | 64 | 140 | 0.0 | 3.0 | 0.00 | 0.10 | 0.10 | 64 | 1015.4 |
| 20260904231922 | 64 | 149 | 0.0 | 3.0 | 0.00 | 0.10 | 0.10 | 63 | 1015.4 |
| 20260904231425 | 63 | 150 | 0.0 | 3.0 | 0.00 | 0.10 | 0.10 | 64 | 1015.4 |
| 20260904230924 | 63 | 149 | 0.0 | 5.0 | 0.00 | 0.10 | 0.10 | 65 | 1015.5 |
| 20260904230422 | 62 | 150 | 0.0 | 5.0 | 0.00 | 0.10 | 0.10 | 64 | 1015.4 |
| 20260904225922 | 62 | 154 | 0.0 | 2.0 | 0.00 | 0.10 | 0.10 | 64 | 1015.5 |
| 20260904225423 | 62 | 154 | 0.0 | 2.0 | 0.00 | 0.10 | 0.10 | 64 | 1015.4 |
| 20260904224923 | 62 | 154 | 0.0 | 3.0 | 0.00 | 0.10 | 0.10 | 66 | 1015.4 |
| 20260904224742 | 61 | 154 | 0.0 | 6.0 | 0.00 | 0.10 | 0.10 | 68 | 1015.4 |
| 20260904223923 | 61 | 158 | 0.0 | 6.0 | 0.00 | 0.10 | 0.10 | 68 | 1015.5 |
| 20260904223736 | 61 | 155 | 1.0 | 6.0 | 0.00 | 0.10 | 0.10 | 67 | 1015.3 |
| 20260904222930 | 61 | 156 | 1.0 | 6.0 | 0.00 | 0.10 | 0.10 | 68 | 1015.4 |
| 20260904222421 | 61 | 158 | 1.0 | 6.0 | 0.00 | 0.10 | 0.10 | 69 | 1015.4 |
| 20260904222235 | 61 | 157 | 1.0 | 4.0 | 0.00 | 0.10 | 0.10 | 68 | 1015.4 |
| 20260904221417 | 61 | 168 | 1.0 | 6.0 | 0.00 | 0.10 | 0.10 | 68 | 1015.4 |
| 20260904220918 | 61 | 172 | 1.0 | 6.0 | 0.00 | 0.10 | 0.10 | 68 | 1015.4 |
| 20260904220417 | 61 | 185 | 1.0 | 4.0 | 0.00 | 0.10 | 0.10 | 68 | 1015.4 |